Flag for USA

Past Weather in Fresno, California, USA — Yesterday and Last 2 Weeks

Now
89 °F

Passing clouds.


Feels Like: 86 °F
Forecast: 87 / 59 °F
Wind: 6 mph from Northwest

Location: Fresno Air Terminal
Current Time: Oct 19, 2020 at 5:35:34 pm
Latest Report: Oct 19, 2020 at 4:53 pm
Visibility: 10 mi
Pressure29.88 "Hg
Humidity: 22%
Dew Point: 46 °F
Location of FresnoLocation

Past Weather in Fresno — Graph

°F

Fresno Temperature Yesterday

Maximum temperature yesterday: 92 °F (at 2:53 pm)
Minimum temperature yesterday: 62 °F (at 6:53 am)
Average temperature yesterday: 76 °F

High & Low Weather Summary for the Past Weeks

 TemperatureHumidityPressure
High95 °F (Oct 4, 3:53 pm)83% (Oct 11, 6:53 am)30.15 "Hg (Oct 11, 6:53 am)
Low56 °F (Oct 9, 6:53 am)16% (Oct 18, 2:53 pm)29.80 "Hg (Oct 7, 5:53 pm)
Average74 °F46%29.97 "Hg
* Reported Oct 4 3:53 pm — Oct 19 3:53 pm, Fresno. Weather by CustomWeather, © 2020

Note: Actual official high and low records may vary slightly from our data, if they occured in-between our weather recording intervals... More about our weather records

Fresno Weather History for the Previous 24 Hours

Scroll right to see more
 ConditionsComfort  
Time TempWeatherWind HumidityBarometerVisibility
3:53 pm
Mon, Oct 19
90 °FSunny.5 mph22%29.89 "Hg8 mi
2:53 pm89 °FBroken clouds.No wind23%29.91 "Hg7 mi
1:53 pm87 °FBroken clouds.No wind26%29.92 "Hg7 mi
12:53 pm84 °FScattered clouds.3 mph29%29.95 "Hg7 mi
11:53 am82 °FHaze.5 mph31%29.98 "Hg6 mi
10:53 am78 °FHaze.3 mph33%29.99 "Hg5 mi
9:53 am73 °FHaze.5 mph41%30.00 "Hg5 mi
8:53 am66 °FSunny.5 mph50%30.00 "Hg5 mi
7:53 am62 °FSunny.No wind58%29.98 "Hg5 mi
6:53 am60 °FPassing clouds.5 mph60%29.97 "Hg8 mi
5:53 am61 °FClear.5 mph58%29.96 "Hg9 mi
4:53 am62 °FClear.No wind62%29.95 "Hg10 mi
3:53 am63 °FClear.No wind58%29.95 "Hg10 mi
12:53 am65 °FClear.No wind59%29.97 "Hg10 mi
11:53 pm
Sun, Oct 18
70 °FClear.No wind49%29.96 "Hg8 mi
10:53 pm72 °FClear.No wind46%29.96 "Hg10 mi
9:53 pm72 °FClear.3 mph44%29.95 "Hg10 mi
8:53 pm74 °FClear.3 mph43%29.94 "Hg10 mi
7:53 pm80 °FClear.No wind31%29.93 "Hg10 mi
6:53 pm85 °FClear.3 mph26%29.92 "Hg10 mi
5:53 pm89 °FPassing clouds.6 mph21%29.91 "Hg10 mi
Weather by CustomWeather, © 2020

See weather overview